TimeCDT,TemperatureF,Dew PointF,Humidity,Sea Level PressureIn,VisibilityMPH,Wind Direction,Wind SpeedMPH,Gust SpeedMPH,PrecipitationIn,Events,Conditions,WindDirDegrees,DateUTC
12:13 AM,69.8,60.8,73,29.97,10.0,South,8.1,-,N/A,,Clear,170,2013-08-19 05:13:00
12:33 AM,69.8,60.8,73,29.97,10.0,South,6.9,-,N/A,,Clear,170,2013-08-19 05:33:00
12:53 AM,69.8,60.8,73,29.97,10.0,SSE,5.8,-,N/A,,Clear,150,2013-08-19 05:53:00
1:14 AM,68.0,60.8,78,29.98,10.0,SSE,3.5,-,N/A,,Clear,160,2013-08-19 06:14:00
1:33 AM,68.0,62.6,83,29.98,10.0,SSE,3.5,-,N/A,,Clear,160,2013-08-19 06:33:00
1:53 AM,68.0,62.6,83,29.98,10.0,SSE,3.5,-,N/A,,Scattered Clouds,160,2013-08-19 06:53:00
2:13 AM,68.0,62.6,83,29.98,10.0,SSE,3.5,-,N/A,,Scattered Clouds,150,2013-08-19 07:13:00
2:34 AM,68.0,62.6,83,29.97,10.0,South,5.8,-,N/A,,Scattered Clouds,170,2013-08-19 07:34:00
2:53 AM,68.0,62.6,83,29.95,10.0,South,6.9,-,N/A,,Clear,170,2013-08-19 07:53:00
3:13 AM,68.0,60.8,78,29.94,10.0,South,6.9,-,N/A,,Clear,170,2013-08-19 08:13:00
3:34 AM,68.0,62.6,83,29.92,10.0,SSE,6.9,-,N/A,,Clear,160,2013-08-19 08:34:00
3:53 AM,68.0,62.6,83,29.92,10.0,South,6.9,-,N/A,,Clear,170,2013-08-19 08:53:00
4:13 AM,69.8,60.8,73,29.92,10.0,SSE,4.6,-,N/A,,Clear,150,2013-08-19 09:13:00
4:33 AM,68.0,62.6,83,29.92,10.0,Calm,Calm,-,N/A,,Clear,0,2013-08-19 09:33:00
4:53 AM,69.8,62.6,78,29.92,10.0,SE,3.5,-,N/A,,Mostly Cloudy,140,2013-08-19 09:53:00
5:14 AM,69.8,62.6,78,29.91,10.0,South,4.6,-,N/A,,Scattered Clouds,170,2013-08-19 10:14:00
5:34 AM,68.0,62.6,83,29.92,10.0,SSE,4.6,-,N/A,,Clear,160,2013-08-19 10:34:00
5:53 AM,68.0,62.6,83,29.92,10.0,SSE,3.5,-,N/A,,Mostly Cloudy,150,2013-08-19 10:53:00
6:13 AM,68.0,62.6,83,29.92,10.0,SSE,3.5,-,N/A,,Scattered Clouds,150,2013-08-19 11:13:00
6:33 AM,68.0,62.6,83,29.91,10.0,South,5.8,-,N/A,,Scattered Clouds,170,2013-08-19 11:33:00
6:53 AM,68.0,62.6,83,29.91,10.0,South,5.8,-,N/A,,Clear,180,2013-08-19 11:53:00
7:13 AM,69.8,62.6,78,29.92,10.0,SE,3.5,-,N/A,,Clear,130,2013-08-19 12:13:00
7:33 AM,68.0,62.6,83,29.92,10.0,SE,3.5,-,N/A,,Clear,140,2013-08-19 12:33:00
7:53 AM,68.0,62.6,83,29.91,10.0,SSE,4.6,-,N/A,,Clear,150,2013-08-19 12:53:00
8:13 AM,69.8,62.6,78,29.91,10.0,South,3.5,-,N/A,,Clear,170,2013-08-19 13:13:00
8:33 AM,71.6,62.6,73,29.92,10.0,South,3.5,-,N/A,,Clear,170,2013-08-19 13:33:00
8:53 AM,73.4,62.6,69,29.92,10.0,South,6.9,-,N/A,,Clear,190,2013-08-19 13:53:00
9:13 AM,73.4,62.6,69,29.92,10.0,South,8.1,-,N/A,,Clear,190,2013-08-19 14:13:00
9:33 AM,75.2,62.6,65,29.92,7.0,South,9.2,-,N/A,,Clear,190,2013-08-19 14:33:00
9:54 AM,77.0,62.6,61,29.92,7.0,SSW,8.1,-,N/A,,Clear,210,2013-08-19 14:54:00
10:14 AM,78.8,64.4,61,29.92,10.0,South,6.9,-,N/A,,Clear,190,2013-08-19 15:14:00
10:34 AM,80.6,64.4,58,29.92,10.0,SW,6.9,-,N/A,,Clear,220,2013-08-19 15:34:00
10:53 AM,80.6,64.4,58,29.92,10.0,SW,4.6,-,N/A,,Clear,220,2013-08-19 15:53:00
11:13 AM,80.6,64.4,58,29.92,10.0,South,4.6,-,N/A,,Clear,170,2013-08-19 16:13:00
11:34 AM,82.4,64.4,54,29.91,10.0,SSE,4.6,-,N/A,,Clear,160,2013-08-19 16:34:00
11:53 AM,82.4,66.2,58,29.91,10.0,SSE,5.8,-,N/A,,Clear,150,2013-08-19 16:53:00
12:13 PM,82.4,66.2,58,29.91,10.0,SSE,5.8,-,N/A,,Clear,160,2013-08-19 17:13:00
12:33 PM,84.2,66.2,55,29.90,10.0,SE,8.1,-,N/A,,Clear,130,2013-08-19 17:33:00
12:53 PM,84.2,66.2,55,29.89,10.0,South,8.1,-,N/A,,Clear,170,2013-08-19 17:53:00
1:13 PM,86.0,66.2,51,29.89,10.0,SSE,8.1,-,N/A,,Clear,150,2013-08-19 18:13:00
1:33 PM,86.0,66.2,51,29.89,10.0,SSE,9.2,16.1,N/A,,Clear,160,2013-08-19 18:33:00
1:53 PM,86.0,66.2,51,29.89,10.0,South,9.2,-,N/A,,Clear,170,2013-08-19 18:53:00
2:13 PM,87.8,68.0,52,29.88,10.0,South,10.4,16.1,N/A,,Clear,180,2013-08-19 19:13:00
2:33 PM,87.8,68.0,52,29.88,10.0,SSE,6.9,-,N/A,,Clear,160,2013-08-19 19:33:00
2:53 PM,87.8,68.0,52,29.88,10.0,SSE,8.1,-,N/A,,Scattered Clouds,160,2013-08-19 19:53:00
3:13 PM,87.8,68.0,52,29.88,10.0,SSW,10.4,-,N/A,,Scattered Clouds,200,2013-08-19 20:13:00
3:34 PM,87.8,69.8,55,29.88,10.0,SSW,8.1,-,N/A,,Scattered Clouds,210,2013-08-19 20:34:00
3:53 PM,87.8,68.0,52,29.87,10.0,SSW,6.9,-,N/A,,Scattered Clouds,200,2013-08-19 20:53:00
4:13 PM,87.8,68.0,52,29.86,10.0,South,6.9,-,N/A,,Clear,170,2013-08-19 21:13:00
4:33 PM,87.8,69.8,55,29.86,10.0,SSE,3.5,-,N/A,,Clear,150,2013-08-19 21:33:00
4:53 PM,89.6,69.8,52,29.86,10.0,SSE,6.9,-,N/A,,Clear,150,2013-08-19 21:53:00
5:14 PM,89.6,69.8,52,29.85,10.0,South,9.2,-,N/A,,Clear,190,2013-08-19 22:14:00
5:33 PM,89.6,69.8,52,29.85,10.0,South,6.9,-,N/A,,Clear,180,2013-08-19 22:33:00
5:53 PM,87.8,69.8,55,29.85,10.0,SSW,6.9,-,N/A,,Clear,210,2013-08-19 22:53:00
6:13 PM,87.8,69.8,55,29.85,10.0,SSW,6.9,-,N/A,,Scattered Clouds,200,2013-08-19 23:13:00
6:33 PM,87.8,69.8,55,29.84,10.0,SSE,6.9,-,N/A,,Clear,160,2013-08-19 23:33:00
6:53 PM,87.8,69.8,55,29.84,10.0,SSW,5.8,-,N/A,,Clear,200,2013-08-19 23:53:00
7:13 PM,86.0,69.8,58,29.84,10.0,South,3.5,-,N/A,,Clear,180,2013-08-20 00:13:00
7:33 PM,84.2,71.6,66,29.84,10.0,South,3.5,-,N/A,,Scattered Clouds,180,2013-08-20 00:33:00
7:53 PM,82.4,71.6,70,29.84,10.0,SSE,3.5,-,N/A,,Clear,160,2013-08-20 00:53:00
8:13 PM,82.4,71.6,70,29.84,10.0,Calm,Calm,-,N/A,,Clear,0,2013-08-20 01:13:00
8:34 PM,80.6,71.6,74,29.84,10.0,SSE,3.5,-,N/A,,Clear,160,2013-08-20 01:34:00
8:53 PM,78.8,71.6,78,29.85,10.0,SSE,4.6,-,N/A,,Clear,150,2013-08-20 01:53:00
9:13 PM,77.0,71.6,83,29.85,10.0,SSE,3.5,-,N/A,,Clear,160,2013-08-20 02:13:00
9:33 PM,77.0,71.6,83,29.85,10.0,SSE,4.6,-,N/A,,Clear,150,2013-08-20 02:33:00
9:54 PM,77.0,71.6,83,29.85,10.0,SSE,4.6,-,N/A,,Clear,150,2013-08-20 02:54:00
10:13 PM,75.2,71.6,89,29.86,10.0,South,3.5,-,N/A,,Clear,170,2013-08-20 03:13:00
10:33 PM,75.2,71.6,89,29.86,7.0,SSE,4.6,-,N/A,,Clear,160,2013-08-20 03:33:00
10:53 PM,75.2,71.6,89,29.85,7.0,South,5.8,-,N/A,,Clear,170,2013-08-20 03:53:00
11:13 PM,75.2,71.6,89,29.85,7.0,South,4.6,-,N/A,,Clear,180,2013-08-20 04:13:00
11:34 PM,75.2,71.6,89,29.85,7.0,South,4.6,-,N/A,,Clear,180,2013-08-20 04:34:00
11:53 PM,75.2,69.8,83,29.85,7.0,South,3.5,-,N/A,,Clear,170,2013-08-20 04:53:00